Weather History for Beach, ND

Change the Weather History Date:

Wednesday, February 6, 2013

  Actual Average (KGDV) Record (KGDV)
Temperature  
Mean Temperature 30 °F -  
Max Temperature 37 °F 29 °F 53 °F (2009)
Min Temperature 23 °F 11 °F -16 °F (2014)
Degree Days  
Heating Degree Days 34    
Moisture  
Dew Point 26 °F    
Average Humidity 79    
Maximum Humidity 93    
Minimum Humidity 65    
Precipitation  
Precipitation 0.00 in - - ()
Sea Level Pressure  
Sea Level Pressure 29.81 in    
Wind  
Wind Speed 11 mph (West)    
Max Wind Speed 23 mph    
Max Gust Speed 30 mph    
Visibility 10 miles    
Events      
Averages and records for this station are not official NWS values.
T = Trace of Precipitation, MM = Missing Value Source: NWS Daily Summary

Daily Weather History Graph

Daily Weather History Graph

Search for Another Location

Airport:

Trip Planner

Search our weather history database for the weather conditions in past years. The results will help you decide how hot, cold, wet, or windy it might be!

Date:

Astronomy

Feb. 06, 2013 Rise Set
Actual Time 7:13 AM MST 5:07 PM MST
Civil Twilight 6:41 AM MST 5:39 PM MST
Nautical Twilight 6:05 AM MST 6:15 PM MST
Astronomical Twilight 5:30 AM MST 6:50 PM MST
Moon 4:07 AM MST (2/6) 1:20 PM MST (2/6)
Length of Visible Light 10h 57m
Length of Day
9h 53m
Waning Crescent, 16% of the Moon is Illuminated
Feb 6
Waning Crescent
Feb 10
New
Feb 17
First Quarter
Feb 25
Full
Mar 4
Last Quarter

Hourly Weather History & Observations

Time (MST) Temp. Windchill Dew Point Humidity Pressure Visibility Wind Dir Wind Speed Gust Speed Precip Events Conditions
12:15 AM 30.2 °F 22.6 °F 26.6 °F 86% 29.69 in 10.0 mi South 8.1 mph - N/A   Partly Cloudy
12:35 AM 28.4 °F 22.2 °F 26.6 °F 93% 29.69 in 10.0 mi South 5.8 mph - N/A   Mostly Cloudy
12:55 AM 28.4 °F 21.2 °F 24.8 °F 86% 29.68 in 10.0 mi South 6.9 mph - N/A   Mostly Cloudy
1:15 AM 28.4 °F 20.4 °F 24.8 °F 86% 29.68 in 10.0 mi SSW 8.1 mph - N/A   Partly Cloudy
1:35 AM 26.6 °F 18.2 °F 24.8 °F 93% 29.67 in 10.0 mi SSW 8.1 mph - N/A   Clear
1:55 AM 28.4 °F 20.4 °F 24.8 °F 86% 29.67 in 10.0 mi SW 8.1 mph - N/A   Clear
2:15 AM 32.0 °F 22.5 °F 26.6 °F 80% 29.68 in 10.0 mi SW 12.7 mph - N/A   Clear
2:35 AM 32.0 °F 23.0 °F 26.6 °F 80% 29.67 in 10.0 mi WSW 11.5 mph - N/A   Partly Cloudy
2:55 AM 32.0 °F 23.0 °F 26.6 °F 80% 29.67 in 10.0 mi WSW 11.5 mph - N/A   Clear
3:15 AM 32.0 °F 22.5 °F 26.6 °F 80% 29.66 in 10.0 mi WSW 12.7 mph - N/A   Clear
3:35 AM 32.0 °F 21.6 °F 26.6 °F 80% 29.67 in 10.0 mi WSW 15.0 mph - N/A   Clear
3:55 AM 32.0 °F 21.2 °F 26.6 °F 80% 29.67 in 10.0 mi WSW 16.1 mph - N/A   Clear
4:15 AM 33.8 °F 22.8 °F 26.6 °F 75% 29.66 in 10.0 mi WSW 18.4 mph - N/A   Clear
4:35 AM 33.8 °F 23.5 °F 26.6 °F 75% 29.67 in 10.0 mi WSW 16.1 mph - N/A   Clear
4:55 AM 32.0 °F 21.2 °F 26.6 °F 80% 29.68 in 10.0 mi WSW 16.1 mph - N/A   Clear
5:15 AM 32.0 °F 21.6 °F 26.6 °F 80% 29.68 in 10.0 mi West 15.0 mph - N/A   Clear
5:35 AM 32.0 °F 21.6 °F 26.6 °F 80% 29.69 in 10.0 mi West 15.0 mph - N/A   Clear
5:55 AM 32.0 °F 21.6 °F 24.8 °F 75% 29.70 in 10.0 mi West 15.0 mph - N/A   Clear
6:15 AM 32.0 °F 21.6 °F 24.8 °F 75% 29.70 in 10.0 mi West 15.0 mph - N/A   Clear
6:35 AM 32.0 °F 22.1 °F 24.8 °F 75% 29.71 in 10.0 mi West 13.8 mph - N/A   Clear
6:55 AM 32.0 °F 21.6 °F 24.8 °F 75% 29.72 in 10.0 mi West 15.0 mph - N/A   Clear
7:15 AM 30.2 °F 20.2 °F 24.8 °F 80% 29.72 in 10.0 mi West 12.7 mph - N/A   Clear
7:35 AM 28.4 °F 17.5 °F 24.8 °F 86% 29.74 in 10.0 mi West 13.8 mph - N/A   Clear
7:55 AM 28.4 °F 17.5 °F 24.8 °F 86% 29.74 in 10.0 mi West 13.8 mph - N/A   Clear
8:15 AM 32.0 °F 22.5 °F 24.8 °F 75% 29.75 in 10.0 mi West 12.7 mph - N/A   Clear
8:35 AM 32.0 °F 22.1 °F 26.6 °F 80% 29.75 in 10.0 mi West 13.8 mph - N/A   Partly Cloudy
8:55 AM 33.8 °F 23.9 °F 26.6 °F 75% 29.76 in 10.0 mi West 15.0 mph - N/A   Partly Cloudy
9:35 AM 33.8 °F 23.5 °F 26.6 °F 75% 29.77 in 10.0 mi West 16.1 mph - N/A   Clear
9:55 AM 35.6 °F 25.9 °F 26.6 °F 70% 29.77 in 10.0 mi West 16.1 mph - N/A   Clear
10:15 AM 35.6 °F 24.8 °F 26.6 °F 70% 29.78 in 10.0 mi WNW 19.6 mph - N/A   Clear
10:35 AM 37.4 °F 27.2 °F 28.4 °F 70% 29.79 in 10.0 mi WNW 19.6 mph 24.2 mph N/A   Clear
10:55 AM 37.4 °F 27.2 °F 26.6 °F 65% 29.79 in 10.0 mi WNW 19.6 mph 25.3 mph N/A   Clear
11:15 AM 37.4 °F 26.9 °F 26.6 °F 65% 29.79 in 10.0 mi WNW 20.7 mph 27.6 mph N/A   Clear
11:35 AM 37.4 °F 26.4 °F 28.4 °F 70% 29.79 in 10.0 mi WNW 23.0 mph 29.9 mph N/A   Clear
11:55 AM 37.4 °F 26.9 °F 28.4 °F 70% 29.79 in 10.0 mi WNW 20.7 mph 25.3 mph N/A   Clear
12:15 PM 37.4 °F 26.6 °F 28.4 °F 70% 29.79 in 10.0 mi WNW 21.9 mph 27.6 mph N/A   Clear
12:35 PM 37.4 °F 26.4 °F 28.4 °F 70% 29.80 in 10.0 mi WNW 23.0 mph 27.6 mph N/A   Clear
12:55 PM 37.4 °F 27.2 °F 28.4 °F 70% 29.81 in 10.0 mi WNW 19.6 mph 27.6 mph N/A   Clear
1:15 PM 37.4 °F 27.5 °F 28.4 °F 70% 29.81 in 10.0 mi WNW 18.4 mph 24.2 mph N/A   Clear
1:35 PM 37.4 °F 27.8 °F 28.4 °F 70% 29.81 in 10.0 mi NW 17.3 mph - N/A   Clear
1:55 PM 37.4 °F 28.2 °F 28.4 °F 70% 29.82 in 10.0 mi NW 16.1 mph 20.7 mph N/A   Clear
2:15 PM 37.4 °F 29.3 °F 28.4 °F 70% 29.82 in 10.0 mi NW 12.7 mph - N/A   Clear
2:35 PM 37.4 °F 29.8 °F 28.4 °F 70% 29.84 in 10.0 mi NW 11.5 mph - N/A   Clear
2:55 PM 37.4 °F 30.8 °F 28.4 °F 70% 29.84 in 10.0 mi WNW 9.2 mph - N/A   Clear
3:15 PM 37.4 °F 29.8 °F 28.4 °F 70% 29.85 in 10.0 mi WNW 11.5 mph - N/A   Clear
3:35 PM 37.4 °F 29.3 °F 28.4 °F 70% 29.86 in 10.0 mi WNW 12.7 mph - N/A   Clear
3:55 PM 37.4 °F 29.3 °F 28.4 °F 70% 29.86 in 10.0 mi WNW 12.7 mph - N/A   Clear
4:15 PM 35.6 °F 27.5 °F 28.4 °F 75% 29.87 in 10.0 mi WNW 11.5 mph - N/A   Clear
4:35 PM 35.6 °F 28.6 °F 28.4 °F 75% 29.87 in 10.0 mi West 9.2 mph - N/A   Clear
4:55 PM 35.6 °F 28.6 °F 28.4 °F 75% 29.88 in 10.0 mi West 9.2 mph - N/A   Clear
5:15 PM 32.0 °F 23.6 °F 28.4 °F 87% 29.89 in 10.0 mi WNW 10.4 mph - N/A   Clear
5:35 PM 33.8 °F 25.8 °F 26.6 °F 75% 29.89 in 10.0 mi West 10.4 mph - N/A   Clear
5:55 PM 32.0 °F 24.8 °F 26.6 °F 80% 29.90 in 10.0 mi WNW 8.1 mph - N/A   Clear
6:15 PM 32.0 °F 24.2 °F 26.6 °F 80% 29.91 in 10.0 mi WNW 9.2 mph - N/A   Clear
6:35 PM 32.0 °F 23.6 °F 26.6 °F 80% 29.91 in 10.0 mi WNW 10.4 mph - N/A   Clear
6:55 PM 32.0 °F 28.7 °F 26.6 °F 80% 29.92 in 10.0 mi NW 3.5 mph - N/A   Clear
7:15 PM 28.4 °F 22.2 °F 24.8 °F 86% 29.93 in 10.0 mi NE 5.8 mph - N/A   Clear
7:35 PM 28.4 °F 22.2 °F 24.8 °F 86% 29.93 in 10.0 mi NW 5.8 mph - N/A   Clear
7:55 PM 26.6 °F - 24.8 °F 93% 29.93 in 10.0 mi Calm Calm - N/A   Clear
8:15 PM 26.6 °F 21.2 °F 23.0 °F 86% 29.93 in 10.0 mi WSW 4.6 mph - N/A   Clear
8:35 PM 26.6 °F - 23.0 °F 86% 29.95 in 10.0 mi Calm Calm - N/A   Clear
8:55 PM 26.6 °F 21.2 °F 23.0 °F 86% 29.95 in 10.0 mi South 4.6 mph - N/A   Scattered Clouds
9:15 PM 24.8 °F 19.1 °F 23.0 °F 93% 29.96 in 10.0 mi ESE 4.6 mph - N/A   Scattered Clouds
9:35 PM 24.8 °F 19.1 °F 23.0 °F 93% 29.96 in 10.0 mi SSE 4.6 mph - N/A   Partly Cloudy
9:55 PM 24.8 °F 19.1 °F 23.0 °F 93% 29.96 in 10.0 mi SW 4.6 mph - N/A   Partly Cloudy
10:15 PM 26.6 °F - 23.0 °F 86% 29.97 in 10.0 mi Calm Calm - N/A   Mostly Cloudy
10:35 PM 26.6 °F 22.6 °F 23.0 °F 86% 29.97 in 10.0 mi SSW 3.5 mph - N/A   Overcast
10:55 PM 26.6 °F 21.2 °F 23.0 °F 86% 29.97 in 10.0 mi South 4.6 mph - N/A   Overcast
11:15 PM 24.8 °F 17.9 °F 23.0 °F 93% 29.97 in 10.0 mi SSW 5.8 mph - N/A   Overcast
11:35 PM 26.6 °F 21.2 °F 23.0 °F 86% 29.97 in 10.0 mi SSW 4.6 mph - N/A   Scattered Clouds
11:55 PM 23.0 °F - 21.2 °F 93% 29.98 in 10.0 mi Calm Calm - N/A   Scattered Clouds